Terug naar catalogus

STARLINK-33630

ActiefCommunicatieVLEO
NORAD 63477·PAYLOAD·🇺🇸 United States

Gelanceerd Apr 6, 2025 vanaf Cape Canaveral Space Force Station

Loading…

Volgende Passages (komende 24 uur)

TLE

VersSource: CelesTrak SupGP

Epoch: Sep 15, 2026, 03:14 UTC

1 63477C 25070T   26258.13520833 -.00021813  00000+0 -79017-3 0  2580
2 63477  43.0025 266.3328 0001446 267.0482 352.4486 15.27584686    12

Volg STARLINK-33630 in realtime met AllMySat

Download on the App Store